[[{"header":{"parameterUnit":"m.s-1","parameterCategory":1,"la1":30.2991,"la2":30.254,"lo1":-89.0895,"lo2":-89.0444,"dy":0.0017,"dx":0.0017,"nx":28,"ny":28,"refTime":"2025-01-24T09:00:00:Z","depth":0,"parameterNumber":2,"parameterNumberName":"U-component_of_WINDS"},"data":[0,0,0,0,0,0,0,0,0,0,0,0,0,0,0,0,0,0,0,0,0,0,0,0,0,0,0,0,0,0,0,0,0,0,0,0,0,0,0,0,0,0,0,0,0,0,0,0,0,0,0,0,0,0,0,0,0,0,2.7056,2.7055,0,2.7046,2.7046,2.7046,2.6952,2.695,2.6948,2.6945,2.6936,2.6938,2.694,0,0,0,0,0,0,0,0,0,0,0,0,0,2.6995,2.6996,2.7056,2.7055,2.7055,2.7046,2.7046,2.7046,2.6953,2.695,2.6947,2.6944,2.6936,2.6938,2.694,0,0,0,0,0,0,0,0,0,0,0,0,0,2.7007,2.6997,2.7056,2.7008,2.7003,2.7046,2.7046,2.7045,2.6953,2.695,2.6946,2.6943,2.6935,2.6938,2.6941,2.7029,0,0,2.695,2.6951,0,0,0,0,0,0,0,0,2.7006,2.7009,2.7015,2.7011,2.7006,2.6997,2.7021,2.704,2.6954,2.6972,2.6945,2.6941,2.6959,2.696,2.6966,2.7028,2.7028,2.695,2.6952,2.6953,2.6954,0,0,0,0,0,0,0,2.7005,2.7009,2.7052,2.7015,2.701,2.6987,2.6985,2.7024,2.6986,2.697,2.6964,2.6964,2.6956,2.6963,2.6965,2.7028,2.695,2.6952,2.6954,2.6955,2.7161,2.7165,0,0,0,0,0,0,2.7011,2.7009,2.7052,2.7051,2.6998,2.6991,2.6989,2.7003,2.6985,2.6979,2.6967,2.6959,2.696,2.6962,2.6964,2.7066,2.6953,2.6955,2.6957,2.7158,2.7162,2.7166,0,0,0,0,0,0,2.701,2.7016,2.7052,2.7028,2.7031,2.6996,2.7013,2.7005,2.7012,2.6982,2.6975,2.6981,2.6957,2.696,2.7013,2.7064,2.6957,2.6959,2.7153,2.7159,2.7164,2.727,0,0,0,0,0,0,2.7009,2.7016,2.7049,2.703,2.7033,2.7102,2.7016,2.7007,2.7017,2.7007,2.6993,2.6988,2.6955,2.7009,2.7016,2.7066,2.6962,2.7149,2.7156,2.7162,2.7262,2.7279,2.7293,0,0,0,0,0,2.7007,2.7079,2.7051,2.7057,2.7073,2.7105,2.7106,2.7067,2.7021,2.7054,2.7035,2.6988,2.7058,2.7016,2.7022,2.7074,2.7145,2.7154,2.7162,2.7255,2.7275,2.7293,0,0,0,0,0,0,2.7106,2.7076,2.7044,2.7112,2.7112,2.7089,2.7129,2.709,2.7102,2.7093,2.7043,2.7041,2.7101,2.7093,2.7047,2.7158,2.7093,2.7103,2.7162,2.7181,2.7196,2.7197,2.6964,0,0,0,0,0,2.7135,2.7163,2.7136,2.7199,2.72,2.7165,2.7177,2.7147,2.7144,2.7143,2.7128,2.7128,2.7149,2.7164,2.7183,2.726,2.7256,2.7299,2.7315,2.7328,2.7337,2.7378,2.7397,2.7194,2.7194,2.7194,0,0,2.7197,2.7184,2.7205,2.7218,2.7214,2.7244,2.7165,2.72,2.7222,2.7149,2.7198,2.7187,2.7183,2.7249,2.7277,2.7243,2.7392,2.7338,2.7349,2.7351,2.7388,2.7407,2.7425,2.72,2.7199,2.7198,0,0,2.7325,2.7318,2.7369,2.7367,2.7362,2.7338,2.735,2.7333,2.7323,2.7371,2.7317,2.7342,2.7381,2.738,2.7385,2.7513,2.7471,2.7521,2.7602,2.7642,2.7658,2.7672,2.7718,2.7735,2.753,2.753,2.753,0,2.7402,2.7445,2.7401,2.744,2.7448,2.7382,2.7434,2.7434,2.7435,2.7442,2.7404,2.7451,2.7444,2.7509,2.754,2.7546,2.7559,2.7522,2.7659,2.7673,2.7685,2.7728,2.7745,2.7536,2.7536,2.7535,2.7534,0,2.7541,2.7572,2.7614,2.7616,2.7629,2.7674,2.7637,2.7655,2.7624,2.7604,2.7654,2.7643,2.7658,2.7671,2.7641,2.7732,2.7712,2.7668,2.7601,2.7711,2.7751,2.7767,2.7545,2.7543,2.7541,2.754,0,0,2.7731,2.7708,2.7724,2.7725,2.7714,2.7737,2.778,2.7794,2.781,2.7813,2.7848,2.7882,2.7841,2.7847,2.7816,2.7851,2.7953,2.7802,2.7802,2.7831,2.8053,2.8087,2.8106,2.7925,2.7928,2.793,2.8054,0,2.7854,2.7925,2.7886,2.7963,2.7991,2.7929,2.7966,2.7963,2.7946,2.7968,2.7949,2.7974,2.7918,2.7921,2.7953,2.7934,2.7997,2.7925,2.7957,2.7959,2.796,2.8127,2.8162,2.8279,2.8069,2.8071,2.8073,0,2.8007,2.8016,2.8096,2.8079,2.809,2.8124,2.8134,2.8155,2.8151,2.8136,2.8143,2.8103,2.8144,2.8079,2.8135,2.8086,2.8097,2.809,2.8094,2.8095,2.8023,2.8133,2.8315,2.8333,2.8097,2.8095,2.8094,0,2.8138,2.817,2.8221,2.8224,2.8206,2.8232,2.8226,2.8218,2.8229,2.8238,2.8245,2.8259,2.8267,2.8279,2.8244,2.82,2.8305,2.8237,2.8294,2.8295,2.8319,2.8318,2.8506,2.8326,2.8326,2.8326,2.8325,0,2.8279,2.833,2.828,2.8312,2.8367,2.8322,2.8378,2.8366,2.836,2.8388,2.8336,2.8364,2.8317,2.834,2.8313,2.8364,2.8368,2.8357,2.8349,2.8362,2.8363,2.8368,2.8359,2.833,2.8329,2.8329,2.8328,0,2.8435,2.8403,2.8455,2.8434,2.843,2.8472,2.8454,2.8483,2.8462,2.8499,2.8505,2.8472,2.8497,2.8464,2.8486,2.8468,2.8537,2.8517,2.8538,2.8532,2.8592,2.8587,2.8789,2.8813,2.8619,2.8621,2.8623,0,2.8527,2.8565,2.8548,2.8563,2.856,2.8585,2.8596,2.8554,2.8567,2.8566,2.8595,2.8615,2.8629,2.8671,2.865,2.8666,2.8647,2.8716,2.8649,2.866,2.8648,2.8646,2.865,2.873,2.8733,2.8735,2.8736,0,2.8695,2.8677,2.8695,2.8707,2.8722,2.8729,2.8733,2.8749,2.8704,2.8722,2.8747,2.8758,2.8779,2.88,2.8811,2.8805,2.8764,2.8758,2.8772,2.8785,2.8796,2.8791,2.8576,2.8753,2.8752,2.875,2.8749,2.8749,2.8822,2.8852,2.8845,2.8866,2.8865,2.887,2.8895,2.8878,2.8897,2.8911,2.8885,2.8916,2.8912,2.8922,2.892,2.8944,2.8914,2.8935,2.894,2.8946,2.8955,2.8792,2.8946,2.8946,2.8945,2.8945,2.8944,0,2.8987,2.8979,2.8999,2.9006,2.9023,2.8982,2.8984,2.9001,2.9029,2.9028,2.9042,2.907,2.909,2.9071,2.9087,2.911,2.9092,2.9116,2.9114,2.9113,2.8981,2.8967,2.913,2.913,2.913,2.913,2.913,2.913,2.9075,2.9124,2.9106,2.9154,2.9146,2.9175,2.918,2.9184,2.9183,2.9217,2.9233,2.922,2.9211,2.9226,2.9243,2.9237,2.9245,2.9276,2.9264,2.914,2.9122,2.9105,2.9091,2.9279,2.9279,2.9393,2.9395,2.9395]},{"header":{"parameterUnit":"m.s-1","parameterCategory":1,"la1":30.2991,"la2":30.254,"lo1":-89.0895,"lo2":-89.0444,"dy":0.0017,"dx":0.0017,"nx":28,"ny":28,"refTime":"2025-01-24T09:00:00:Z","depth":0,"parameterNumber":3,"parameterNumberName":"V-component_of_WINDS"},"data":[0,0,0,0,0,0,0,0,0,0,0,0,0,0,0,0,0,0,0,0,0,0,0,0,0,0,0,0,0,0,0,0,0,0,0,0,0,0,0,0,0,0,0,0,0,0,0,0,0,0,0,0,0,0,0,0,0,0,-2.2228,-2.2229,0,-2.2301,-2.2302,-2.2303,-2.2256,-2.2254,-2.2252,-2.225,-2.2325,-2.2329,-2.2333,0,0,0,0,0,0,0,0,0,0,0,0,0,-2.2048,-2.2052,-2.2228,-2.2229,-2.223,-2.2301,-2.2302,-2.2303,-2.2257,-2.2254,-2.2251,-2.2249,-2.2324,-2.2329,-2.2333,0,0,0,0,0,0,0,0,0,0,0,0,0,-2.2124,-2.2053,-2.2228,-2.2215,-2.2215,-2.2301,-2.2302,-2.2303,-2.2257,-2.2254,-2.2251,-2.2248,-2.2322,-2.2328,-2.2334,-2.2437,0,0,-2.2353,-2.2355,0,0,0,0,0,0,0,0,-2.212,-2.2131,-2.2216,-2.2216,-2.2216,-2.2266,-2.2266,-2.2348,-2.2258,-2.2241,-2.225,-2.2246,-2.2308,-2.2315,-2.2336,-2.244,-2.2444,-2.2353,-2.2357,-2.2359,-2.2361,0,0,0,0,0,0,0,-2.2115,-2.2127,-2.2257,-2.2217,-2.2217,-2.2206,-2.2213,-2.2281,-2.2292,-2.2242,-2.2239,-2.2248,-2.2307,-2.233,-2.2338,-2.2445,-2.2353,-2.2358,-2.2362,-2.2364,-2.2637,-2.2641,0,0,0,0,0,0,-2.211,-2.2123,-2.2254,-2.2259,-2.2159,-2.2212,-2.222,-2.2253,-2.2291,-2.2294,-2.2251,-2.2246,-2.2322,-2.2331,-2.234,-2.2463,-2.2359,-2.2365,-2.2369,-2.2634,-2.2638,-2.2642,0,0,0,0,0,0,-2.2107,-2.2123,-2.2251,-2.219,-2.2206,-2.2218,-2.2256,-2.2256,-2.2279,-2.2298,-2.2299,-2.2273,-2.2319,-2.2331,-2.2413,-2.2465,-2.2368,-2.2373,-2.2629,-2.2635,-2.264,-2.2711,0,0,0,0,0,0,-2.2102,-2.2121,-2.2161,-2.2192,-2.2209,-2.2324,-2.2259,-2.226,-2.229,-2.2284,-2.2318,-2.2321,-2.2318,-2.2404,-2.2419,-2.2472,-2.2378,-2.2625,-2.2632,-2.2638,-2.2704,-2.2718,-2.273,0,0,0,0,0,-2.2095,-2.2177,-2.2163,-2.2179,-2.2258,-2.2327,-2.2337,-2.2331,-2.2294,-2.2334,-2.2346,-2.232,-2.2457,-2.2413,-2.2429,-2.2485,-2.2621,-2.263,-2.2638,-2.2698,-2.2715,-2.273,0,0,0,0,0,0,-2.2152,-2.2181,-2.2165,-2.226,-2.2291,-2.2319,-2.2368,-2.235,-2.2392,-2.2385,-2.2376,-2.2385,-2.247,-2.2485,-2.2436,-2.2586,-2.2533,-2.2545,-2.2574,-2.259,-2.2603,-2.2598,-2.2383,0,0,0,0,0,-2.2176,-2.2229,-2.2251,-2.2332,-2.2349,-2.2356,-2.2386,-2.2379,-2.2411,-2.2424,-2.2442,-2.2474,-2.2524,-2.2558,-2.2605,-2.2705,-2.2713,-2.2751,-2.2764,-2.2775,-2.2786,-2.284,-2.2858,-2.2669,-2.2669,-2.2668,0,0,-2.2225,-2.2247,-2.2281,-2.2344,-2.2368,-2.2423,-2.2368,-2.2428,-2.2469,-2.2433,-2.2512,-2.2526,-2.2561,-2.2653,-2.2694,-2.2668,-2.2839,-2.2785,-2.2794,-2.2799,-2.2851,-2.2869,-2.2885,-2.2674,-2.2673,-2.2672,0,0,-2.2343,-2.2365,-2.2436,-2.246,-2.2497,-2.2501,-2.2518,-2.2548,-2.2556,-2.2635,-2.2609,-2.2658,-2.2744,-2.2771,-2.2796,-2.2924,-2.2902,-2.294,-2.3008,-2.3062,-2.3077,-2.309,-2.3137,-2.3154,-2.295,-2.295,-2.295,0,-2.24,-2.2482,-2.2474,-2.2537,-2.2566,-2.2535,-2.2607,-2.2631,-2.2681,-2.2702,-2.2672,-2.278,-2.2802,-2.29,-2.2931,-2.2952,-2.2971,-2.2936,-2.3075,-2.3088,-2.3101,-2.3145,-2.3163,-2.2954,-2.2954,-2.2953,-2.2953,0,-2.2551,-2.2608,-2.2661,-2.271,-2.2744,-2.2811,-2.2813,-2.2849,-2.2839,-2.2847,-2.2927,-2.2952,-2.3004,-2.3027,-2.3017,-2.3123,-2.3106,-2.3076,-2.3023,-2.3123,-2.3165,-2.3182,-2.2961,-2.2959,-2.2958,-2.2957,0,0,-2.2708,-2.2752,-2.2771,-2.2793,-2.2831,-2.2875,-2.2941,-2.2992,-2.3023,-2.3058,-2.3113,-2.3187,-2.316,-2.3188,-2.3181,-2.3228,-2.3329,-2.3192,-2.3193,-2.3218,-2.3449,-2.3473,-2.3492,-2.3315,-2.3318,-2.332,-2.3446,0,-2.2829,-2.2944,-2.2938,-2.3046,-2.3099,-2.3071,-2.3128,-2.3157,-2.3166,-2.3212,-2.3221,-2.3275,-2.3234,-2.3251,-2.3296,-2.3308,-2.3376,-2.3298,-2.3367,-2.3369,-2.336,-2.3514,-2.3539,-2.3657,-2.3462,-2.3465,-2.3467,0,-2.2987,-2.3027,-2.314,-2.317,-2.3192,-2.3244,-2.329,-2.3335,-2.3368,-2.3371,-2.3402,-2.3388,-2.3455,-2.3399,-2.3491,-2.3438,-2.3466,-2.3476,-2.348,-2.3487,-2.3425,-2.3527,-2.3694,-2.3712,-2.3493,-2.3491,-2.3489,0,-2.3092,-2.3174,-2.3253,-2.3272,-2.3309,-2.3346,-2.3363,-2.3393,-2.3424,-2.3464,-2.3484,-2.3532,-2.3558,-2.3596,-2.3595,-2.3554,-2.3688,-2.3632,-2.3693,-2.3694,-2.3724,-2.3722,-2.39,-2.374,-2.3739,-2.3739,-2.3739,0,-2.3228,-2.3299,-2.33,-2.3349,-2.3427,-2.342,-2.3497,-2.351,-2.3537,-2.3588,-2.3565,-2.3613,-2.3608,-2.3657,-2.3656,-2.3733,-2.3745,-2.375,-2.3749,-2.3753,-2.3752,-2.3772,-2.3764,-2.3744,-2.3743,-2.3742,-2.3741,0,-2.3359,-2.3363,-2.3447,-2.3475,-2.3483,-2.354,-2.3564,-2.361,-2.3616,-2.368,-2.3695,-2.3705,-2.3761,-2.3764,-2.3828,-2.3827,-2.3921,-2.3911,-2.3911,-2.3909,-2.3971,-2.3965,-2.4168,-2.4194,-2.4016,-2.4017,-2.4019,0,-2.3447,-2.3501,-2.3534,-2.3567,-2.3586,-2.3638,-2.367,-2.3664,-2.3698,-2.374,-2.3781,-2.3835,-2.3878,-2.3968,-2.3982,-2.4031,-2.4022,-2.4089,-2.4029,-2.4032,-2.4025,-2.4022,-2.4028,-2.4102,-2.4104,-2.4105,-2.4107,0,-2.3603,-2.3602,-2.3649,-2.3696,-2.3735,-2.3772,-2.3806,-2.3834,-2.3832,-2.3872,-2.3929,-2.3962,-2.4027,-2.4082,-2.4129,-2.4147,-2.4127,-2.4125,-2.4142,-2.4147,-2.4146,-2.4149,-2.3944,-2.4121,-2.412,-2.4118,-2.4118,-2.4117,-2.3716,-2.3763,-2.3794,-2.3846,-2.3872,-2.3904,-2.3949,-2.3961,-2.4008,-2.4062,-2.4055,-2.4119,-2.415,-2.4212,-2.4234,-2.4283,-2.426,-2.4285,-2.4291,-2.4298,-2.4305,-2.4136,-2.4292,-2.4292,-2.4291,-2.4291,-2.429,0,-2.3872,-2.3891,-2.3939,-2.3988,-2.4029,-2.4006,-2.4043,-2.408,-2.4136,-2.4167,-2.4209,-2.4275,-2.4327,-2.4344,-2.4395,-2.4432,-2.4424,-2.4445,-2.4443,-2.4448,-2.4322,-2.4303,-2.4451,-2.4451,-2.4451,-2.4451,-2.4451,-2.4451,-2.3959,-2.4036,-2.4039,-2.4129,-2.4147,-2.4209,-2.4233,-2.4263,-2.4287,-2.4362,-2.4405,-2.4416,-2.4441,-2.4494,-2.4541,-2.4544,-2.4565,-2.459,-2.459,-2.4473,-2.4457,-2.4441,-2.4423,-2.4594,-2.4594,-2.4712,-2.4713,-2.4714]}]]